Weather Roundup
Issued by NWS Springfield, MO

Home | Current Version | Previous Version | Text Only | Print | Product List | Glossary On
Versions: 1 2 3 4 5 6 7 8 9 10 11 12 13 14 15 16 17 18 19 20 21 22 23 24 25 26 27 28 29 30 31 32 33 34 35 36 37 38 39 40 41 42 43 44 45 46 47 48 49 50
000
NZUS99 KSGF 101407
HRRSGF

HOURLY WEATHER
NATIONAL WEATHER SERVICE SPRINGFIELD MO
800 AM CST SAT DEC 10 2016

......SGF CWA......

CITY           SKY/WX    TMP DP  RH WIND       PRES   REMARKS
SPRINGFIELD    CLOUDY    30  17  58 SE9       30.43F WCI  22
JOPLIN         CLOUDY    34  18  52 S7        30.43S WCI  28
WEST PLAINS    CLOUDY    22  16  78 SE3       30.50F
ROLLA          CLOUDY    24  13  62 SE6       30.48S WCI  17
OSAGE BEACH    CLOUDY    27  16  63 SE3       30.50S
BRANSON        CLOUDY    28  19  69 E8        30.46F WCI  20

......SURROUNDING SGF CWA......

CITY           SKY/WX    TMP DP  RH WIND       PRES   REMARKS
CHANUTE        CLOUDY    32  20  61 SE5       30.41F WCI  27
PARSONS        CLOUDY    34  20  56 SE3       30.42F
COFFEYVILLE    CLOUDY    34  21  59 SE6       30.42S WCI  29
EMPORIA        MOCLDY    26  18  71 SE8       30.37F WCI  18
GROVE OK       CLOUDY    36  21  55 S6        30.44F WCI  31
ROGERS AR      CLOUDY    34  17  50 SE7       30.43S WCI  28
SILOAM SPRINGS CLOUDY    34  18  51 S5        30.42F WCI  30
HARRISON AR    CLOUDY    30  20  66 SE8       30.45F WCI  22
NEAR YELLVILLE CLOUDY    28  19  69 CALM      30.48F

......KANSAS AND MISSOURI......

CITY           SKY/WX    TMP DP  RH WIND       PRES   REMARKS
KANSAS CTY INT CLOUDY    26  13  57 SE9       30.41F WCI  17
DOWNTOWN KC    CLOUDY    28  15  58 E5        30.43F WCI  23
COLUMBIA       CLOUDY    25  14  63 SE8       30.49F WCI  16
SEDALIA        CLOUDY    27  14  58 SE9       30.48F WCI  18
ST JOSEPH      CLOUDY    26  14  60 SE6       30.43F WCI  19
ST LOUIS       CLOUDY    28  13  53 SE5       30.57R WCI  23
SPIRIT OF STL  CLOUDY    26  17  68 CALM      30.56S
KIRKSVILLE     CLOUDY    24  15  68 SE8       30.48F WCI  15
WICHITA        CLOUDY    27  18  69 SE6       30.33F WCI  20
TOPEKA         CLOUDY    27  19  72 E6        30.40F WCI  20
OLATHE         CLOUDY    25  16  68 SE6       30.41F WCI  18

......TENNESSEE......

CITY           SKY/WX    TMP DP  RH WIND       PRES   REMARKS
MEMPHIS        PTCLDY    27  19  72 E5        30.60S WCI  22
NASHVILLE      MOSUNNY   22  18  85 CALM      30.62R

......ARKANSAS.......

CITY           SKY/WX    TMP DP  RH WIND       PRES   REMARKS
FAYETTEVILLE   MOCLDY    31  17  56 SW3       30.44F
FT SMITH       CLOUDY    34  21  59 E7        30.49F WCI  28
LITTLE ROCK    CLOUDY    29  26  89 SE3       30.58F

......OKLAHOMA.......

CITY           SKY/WX    TMP DP  RH WIND       PRES   REMARKS
TULSA          CLOUDY    37  21  52 S9        30.41F WCI  30
PONCA CITY     CLOUDY    34  18  52 SE16      30.33F WCI  24
MCALESTER      CLOUDY    38  19  46 SE6       30.45F WCI  33
OKLAHOMA CITY  CLOUDY    34  22  61 S15       30.35F WCI  24

......IOWA............

CITY           SKY/WX    TMP DP  RH WIND       PRES   REMARKS
DES MOINES     CLOUDY    23  13  65 SE8       30.44F WCI  14
QUAD CITIES    CLOUDY    22  14  71 SW5       30.53S WCI  16

......ILLINOIS........

CITY           SKY/WX    TMP DP  RH WIND       PRES   REMARKS
QUINCY         CLOUDY    24  14  65 SE6       30.52F WCI  17
CHICAGO        MOCLDY    18  12  77 W10       30.51R WCI   6




USA.gov is the U.S. government's official web portal to all federal, state and local government web resources and services.